Time,TemperatureF,DewpointF,PressureIn,WindDirection,WindDirectionDegrees,WindSpeedMPH,WindSpeedGustMPH,Humidity,HourlyPrecipIn,Conditions,Clouds,dailyrainin,SoftwareType,DateUTC
2013-03-04 00:00:00,32.6,27.7,29.48,West,268,2.0,3.0,82,0.00,,OVC080,0.00,VWS V14.00,2013-03-04 05:00:00,
2013-03-04 00:05:00,32.6,27.7,29.48,WSW,252,0.0,4.0,82,0.00,,OVC033,0.00,VWS V14.00,2013-03-04 05:05:00,
2013-03-04 00:10:00,32.6,27.7,29.48,WSW,252,1.0,4.0,82,0.00,,OVC033,0.00,VWS V14.00,2013-03-04 05:10:00,
2013-03-04 00:15:00,32.6,27.7,29.48,WNW,296,4.0,4.0,82,0.00,,OVC033,0.00,VWS V14.00,2013-03-04 05:15:00,
2013-03-04 00:20:00,32.8,27.9,29.48,West,281,1.0,4.0,82,0.00,,OVC033,0.00,VWS V14.00,2013-03-04 05:20:00,
2013-03-04 00:25:00,32.8,27.9,29.48,WNW,294,0.0,5.0,82,0.00,,OVC033,0.00,VWS V14.00,2013-03-04 05:25:00,
2013-03-04 00:30:00,33.0,27.8,29.48,NNW,338,2.0,5.0,81,0.00,,OVC033,0.00,VWS V14.00,2013-03-04 05:30:00,
2013-03-04 00:35:00,33.1,27.9,29.48,West,262,0.0,5.0,81,0.00,,OVC033,0.00,VWS V14.00,2013-03-04 05:35:00,
2013-03-04 00:40:00,33.2,28.0,29.48,West,279,1.0,6.0,81,0.00,,OVC033,0.00,VWS V14.00,2013-03-04 05:40:00,
2013-03-04 00:45:00,33.4,27.9,29.48,WSW,248,6.0,7.0,80,0.00,,OVC033,0.00,VWS V14.00,2013-03-04 05:45:00,
2013-03-04 00:50:00,33.5,28.0,29.48,WNW,294,1.0,7.0,80,0.00,,OVC033,0.00,VWS V14.00,2013-03-04 05:50:00,
2013-03-04 00:55:00,33.5,28.0,29.48,West,263,0.0,7.0,80,0.00,,OVC033,0.00,VWS V14.00,2013-03-04 05:55:00,
2013-03-04 01:00:00,33.6,27.8,29.48,WSW,255,0.0,5.0,79,0.00,,,0.00,VWS V14.00,2013-03-04 06:00:00,
2013-03-04 01:05:00,33.6,27.8,29.48,West,277,2.0,6.0,79,0.00,,,0.00,VWS V14.00,2013-03-04 06:05:00,
2013-03-04 01:10:00,33.7,27.9,29.49,West,277,0.0,6.0,79,0.00,,,0.00,VWS V14.00,2013-03-04 06:10:00,
2013-03-04 01:15:00,33.6,27.8,29.49,West,277,1.0,6.0,79,0.00,,,0.00,VWS V14.00,2013-03-04 06:15:00,
2013-03-04 01:20:00,33.6,27.8,29.48,West,268,0.0,6.0,79,0.00,,,0.00,VWS V14.00,2013-03-04 06:20:00,
2013-03-04 01:25:00,33.6,28.1,29.48,West,269,7.0,7.0,80,0.00,,,0.00,VWS V14.00,2013-03-04 06:25:00,
2013-03-04 01:30:00,33.6,28.1,29.48,West,270,0.0,5.0,80,0.00,,,0.00,VWS V14.00,2013-03-04 06:30:00,
2013-03-04 01:35:00,33.5,28.0,29.48,WSW,251,1.0,5.0,80,0.00,,,0.00,VWS V14.00,2013-03-04 06:35:00,
2013-03-04 01:40:00,33.5,28.0,29.48,WSW,244,0.0,5.0,80,0.00,,,0.00,VWS V14.00,2013-03-04 06:40:00,
2013-03-04 01:45:00,33.5,28.0,29.48,West,271,0.0,6.0,80,0.00,,,0.00,VWS V14.00,2013-03-04 06:45:00,
2013-03-04 01:50:00,33.4,28.2,29.48,West,271,0.0,6.0,81,0.00,,,0.00,VWS V14.00,2013-03-04 06:50:00,
2013-03-04 01:55:00,33.4,27.9,29.48,West,275,1.0,6.0,80,0.00,,,0.00,VWS V14.00,2013-03-04 06:55:00,
2013-03-04 02:00:00,33.3,28.1,29.48,WNW,290,0.0,4.0,81,0.00,,,0.00,VWS V14.00,2013-03-04 07:00:00,
2013-03-04 02:05:00,33.3,28.1,29.48,West,271,0.0,4.0,81,0.00,,,0.00,VWS V14.00,2013-03-04 07:05:00,
2013-03-04 02:10:00,33.3,28.1,29.48,West,261,1.0,5.0,81,0.00,,,0.00,VWS V14.00,2013-03-04 07:10:00,
2013-03-04 02:15:00,33.3,27.8,29.48,West,275,0.0,5.0,80,0.00,,,0.00,VWS V14.00,2013-03-04 07:15:00,
2013-03-04 02:20:00,33.3,27.8,29.48,WNW,291,1.0,5.0,80,0.00,,,0.00,VWS V14.00,2013-03-04 07:20:00,
2013-03-04 02:25:00,33.3,27.8,29.48,SW,219,0.0,5.0,80,0.00,,,0.00,VWS V14.00,2013-03-04 07:25:00,
2013-03-04 02:30:00,33.3,27.8,29.48,SW,234,1.0,3.0,80,0.00,,,0.00,VWS V14.00,2013-03-04 07:30:00,
2013-03-04 02:35:00,33.2,27.7,29.48,West,269,2.0,3.0,80,0.00,,,0.00,VWS V14.00,2013-03-04 07:35:00,
2013-03-04 02:40:00,33.2,27.7,29.48,NW,314,0.0,5.0,80,0.00,,,0.00,VWS V14.00,2013-03-04 07:40:00,
2013-03-04 02:45:00,33.2,27.7,29.47,West,269,0.0,5.0,80,0.00,,,0.00,VWS V14.00,2013-03-04 07:45:00,
2013-03-04 02:50:00,33.2,27.7,29.47,NW,313,0.0,6.0,80,0.00,,,0.00,VWS V14.00,2013-03-04 07:50:00,
2013-03-04 02:55:00,33.2,27.7,29.47,WNW,284,5.0,7.0,80,0.00,,,0.00,VWS V14.00,2013-03-04 07:55:00,
2013-03-04 03:00:00,33.2,27.4,29.47,WSW,256,0.0,4.0,79,0.00,,,0.00,VWS V14.00,2013-03-04 08:00:00,
2013-03-04 03:05:00,33.2,27.4,29.47,West,271,3.0,5.0,79,0.00,,,0.00,VWS V14.00,2013-03-04 08:05:00,
2013-03-04 03:10:00,33.1,27.3,29.48,West,280,3.0,5.0,79,0.00,,,0.00,VWS V14.00,2013-03-04 08:10:00,
2013-03-04 03:15:00,33.1,27.3,29.47,West,272,2.0,6.0,79,0.00,,,0.00,VWS V14.00,2013-03-04 08:15:00,
2013-03-04 03:20:00,33.1,27.3,29.48,SW,215,0.0,6.0,79,0.00,,,0.00,VWS V14.00,2013-03-04 08:20:00,
2013-03-04 03:25:00,33.1,27.3,29.48,WNW,294,1.0,6.0,79,0.00,,,0.00,VWS V14.00,2013-03-04 08:25:00,
2013-03-04 03:30:00,33.0,27.2,29.48,SW,223,2.0,5.0,79,0.00,,,0.00,VWS V14.00,2013-03-04 08:30:00,
2013-03-04 03:35:00,33.0,27.2,29.48,WSW,240,0.0,5.0,79,0.00,,,0.00,VWS V14.00,2013-03-04 08:35:00,
2013-03-04 03:40:00,33.0,27.2,29.48,SW,236,0.0,6.0,79,0.00,,,0.00,VWS V14.00,2013-03-04 08:40:00,
2013-03-04 03:45:00,33.0,27.2,29.48,West,274,4.0,6.0,79,0.00,,,0.00,VWS V14.00,2013-03-04 08:45:00,
2013-03-04 03:50:00,32.9,26.8,29.48,West,269,0.0,7.0,78,0.00,,,0.00,VWS V14.00,2013-03-04 08:50:00,
2013-03-04 03:55:00,32.9,26.8,29.48,WNW,289,4.0,7.0,78,0.00,,,0.00,VWS V14.00,2013-03-04 08:55:00,
2013-03-04 04:00:00,32.9,26.8,29.48,West,274,1.0,7.0,78,0.00,,,0.00,VWS V14.00,2013-03-04 09:00:00,
2013-03-04 04:05:00,32.8,26.7,29.48,West,275,3.0,7.0,78,0.00,,,0.00,VWS V14.00,2013-03-04 09:05:00,
2013-03-04 04:10:00,32.8,26.7,29.48,South,189,2.0,7.0,78,0.00,,,0.00,VWS V14.00,2013-03-04 09:10:00,
2013-03-04 04:15:00,32.7,26.6,29.48,West,263,1.0,7.0,78,0.00,,,0.00,VWS V14.00,2013-03-04 09:15:00,
2013-03-04 04:20:00,32.6,26.8,29.48,West,266,2.0,7.0,79,0.00,,,0.00,VWS V14.00,2013-03-04 09:20:00,
2013-03-04 04:25:00,32.6,26.8,29.48,WSW,245,1.0,7.0,79,0.00,,,0.00,VWS V14.00,2013-03-04 09:25:00,
2013-03-04 04:30:00,32.6,26.8,29.48,SW,225,0.0,1.0,79,0.00,,,0.00,VWS V14.00,2013-03-04 09:30:00,
2013-03-04 04:35:00,32.5,26.7,29.48,WSW,242,2.0,4.0,79,0.00,,,0.00,VWS V14.00,2013-03-04 09:35:00,
2013-03-04 04:40:00,32.5,26.7,29.48,WSW,250,4.0,5.0,79,0.00,,,0.00,VWS V14.00,2013-03-04 09:40:00,
2013-03-04 04:45:00,32.5,26.7,29.48,WNW,284,1.0,5.0,79,0.00,,,0.00,VWS V14.00,2013-03-04 09:45:00,
2013-03-04 04:50:00,32.5,26.7,29.48,NE,44,0.0,5.0,79,0.00,,,0.00,VWS V14.00,2013-03-04 09:50:00,
2013-03-04 04:55:00,32.5,26.7,29.48,WSW,251,2.0,5.0,79,0.00,,,0.00,VWS V14.00,2013-03-04 09:55:00,
2013-03-04 05:00:00,32.5,26.7,29.48,WNW,284,0.0,4.0,79,0.00,,,0.00,VWS V14.00,2013-03-04 10:00:00,
2013-03-04 05:05:00,32.5,26.7,29.48,SW,227,0.0,4.0,79,0.00,,,0.00,VWS V14.00,2013-03-04 10:05:00,
2013-03-04 05:10:00,32.5,26.7,29.48,WSW,246,3.0,4.0,79,0.00,,,0.00,VWS V14.00,2013-03-04 10:10:00,
2013-03-04 05:15:00,32.5,26.7,29.48,SW,225,0.0,4.0,79,0.00,,,0.00,VWS V14.00,2013-03-04 10:15:00,
2013-03-04 05:20:00,32.5,26.7,29.48,SW,236,0.0,5.0,79,0.00,,,0.00,VWS V14.00,2013-03-04 10:20:00,
2013-03-04 05:25:00,32.5,26.7,29.48,WSW,250,3.0,5.0,79,0.00,,,0.00,VWS V14.00,2013-03-04 10:25:00,
2013-03-04 05:30:00,32.5,26.7,29.48,West,275,1.0,4.0,79,0.00,,,0.00,VWS V14.00,2013-03-04 10:30:00,
2013-03-04 05:35:00,32.6,26.8,29.48,WSW,256,0.0,7.0,79,0.00,,,0.00,VWS V14.00,2013-03-04 10:35:00,
2013-03-04 05:40:00,32.6,26.8,29.48,NW,313,5.0,7.0,79,0.00,,,0.00,VWS V14.00,2013-03-04 10:40:00,
2013-03-04 05:45:00,32.6,26.8,29.48,WNW,283,5.0,7.0,79,0.00,,,0.00,VWS V14.00,2013-03-04 10:45:00,
2013-03-04 05:50:00,32.6,26.8,29.48,SW,227,2.0,7.0,79,0.00,,,0.00,VWS V14.00,2013-03-04 10:50:00,
2013-03-04 05:55:00,32.6,26.8,29.48,SW,225,3.0,7.0,79,0.00,,,0.00,VWS V14.00,2013-03-04 10:55:00,
2013-03-04 06:00:00,32.5,26.4,29.48,WSW,244,3.0,6.0,78,0.00,,,0.00,VWS V14.00,2013-03-04 11:00:00,
2013-03-04 06:05:00,32.5,26.4,29.48,West,264,0.0,6.0,78,0.00,,,0.00,VWS V14.00,2013-03-04 11:05:00,
2013-03-04 06:10:00,32.5,26.7,29.48,SSW,213,1.0,6.0,79,0.00,,,0.00,VWS V14.00,2013-03-04 11:10:00,
2013-03-04 06:15:00,32.5,26.7,29.48,West,277,2.0,6.0,79,0.00,,,0.00,VWS V14.00,2013-03-04 11:15:00,
2013-03-04 06:20:00,32.5,26.7,29.48,West,269,2.0,6.0,79,0.00,,,0.00,VWS V14.00,2013-03-04 11:20:00,
2013-03-04 06:25:00,32.4,26.6,29.48,WSW,237,5.0,7.0,79,0.00,,,0.00,VWS V14.00,2013-03-04 11:25:00,
2013-03-04 06:30:00,32.4,26.6,29.48,West,266,2.0,8.0,79,0.00,,,0.00,VWS V14.00,2013-03-04 11:30:00,
2013-03-04 06:35:00,32.4,26.6,29.48,WSW,245,4.0,9.0,79,0.00,,,0.00,VWS V14.00,2013-03-04 11:35:00,
2013-03-04 06:40:00,32.4,26.6,29.48,West,267,2.0,9.0,79,0.00,,,0.00,VWS V14.00,2013-03-04 11:40:00,
2013-03-04 06:45:00,32.4,26.6,29.49,West,275,0.0,9.0,79,0.00,,,0.00,VWS V14.00,2013-03-04 11:45:00,
2013-03-04 06:50:00,32.4,26.6,29.49,WNW,286,3.0,9.0,79,0.00,,,0.00,VWS V14.00,2013-03-04 11:50:00,
2013-03-04 06:55:00,32.4,26.6,29.49,WSW,252,6.0,9.0,79,0.00,,,0.00,VWS V14.00,2013-03-04 11:55:00,
2013-03-04 07:00:00,32.5,26.7,29.49,NW,307,1.0,6.0,79,0.00,,,0.00,VWS V14.00,2013-03-04 12:00:00,
2013-03-04 07:05:00,32.5,26.7,29.49,WNW,298,3.0,7.0,79,0.00,,,0.00,VWS V14.00,2013-03-04 12:05:00,
2013-03-04 07:10:00,32.7,26.9,29.49,West,281,5.0,7.0,79,0.00,,,0.00,VWS V14.00,2013-03-04 12:10:00,
2013-03-04 07:15:00,32.8,27.3,29.49,North,350,2.0,8.0,80,0.00,,,0.00,VWS V14.00,2013-03-04 12:15:00,
2013-03-04 07:20:00,32.8,27.3,29.49,West,278,4.0,9.0,80,0.00,,,0.00,VWS V14.00,2013-03-04 12:20:00,
2013-03-04 07:25:00,32.8,27.3,29.49,SSW,210,1.0,11.0,80,0.00,,,0.00,VWS V14.00,2013-03-04 12:25:00,
2013-03-04 07:30:00,32.9,27.4,29.49,WSW,242,5.0,8.0,80,0.00,,,0.00,VWS V14.00,2013-03-04 12:30:00,
2013-03-04 07:35:00,32.9,27.4,29.49,West,281,5.0,10.0,80,0.00,,,0.00,VWS V14.00,2013-03-04 12:35:00,
2013-03-04 07:40:00,32.9,27.1,29.49,SW,234,0.0,10.0,79,0.00,,,0.00,VWS V14.00,2013-03-04 12:40:00,
2013-03-04 07:45:00,33.0,27.2,29.49,West,265,1.0,10.0,79,0.00,,,0.00,VWS V14.00,2013-03-04 12:45:00,
2013-03-04 07:50:00,33.0,27.2,29.49,WNW,292,2.0,10.0,79,0.00,,,0.00,VWS V14.00,2013-03-04 12:50:00,
2013-03-04 07:55:00,32.8,27.0,29.49,NNW,338,2.0,10.0,79,0.00,,,0.00,VWS V14.00,2013-03-04 12:55:00,
2013-03-04 08:00:00,32.8,27.0,29.49,SW,222,4.0,5.0,79,0.00,,,0.00,VWS V14.00,2013-03-04 13:00:00,
2013-03-04 08:05:00,32.8,27.0,29.49,West,281,3.0,8.0,79,0.00,,,0.00,VWS V14.00,2013-03-04 13:05:00,
2013-03-04 08:10:00,33.0,27.2,29.49,WSW,246,0.0,16.0,79,0.00,,,0.00,VWS V14.00,2013-03-04 13:10:00,
2013-03-04 08:15:00,33.4,27.3,29.49,WSW,249,2.0,16.0,78,0.00,,,0.00,VWS V14.00,2013-03-04 13:15:00,
2013-03-04 08:20:00,33.6,27.5,29.48,SW,229,9.0,16.0,78,0.00,,,0.00,VWS V14.00,2013-03-04 13:20:00,
2013-03-04 08:25:00,33.8,27.4,29.49,WSW,255,7.0,16.0,77,0.00,,,0.00,VWS V14.00,2013-03-04 13:25:00,
2013-03-04 08:30:00,33.8,27.4,29.49,South,188,3.0,11.0,77,0.00,,,0.00,VWS V14.00,2013-03-04 13:30:00,
2013-03-04 08:35:00,34.0,27.2,29.48,SSW,194,7.0,11.0,76,0.00,,,0.00,VWS V14.00,2013-03-04 13:35:00,
2013-03-04 08:40:00,34.1,27.3,29.48,West,273,3.0,11.0,76,0.00,,,0.00,VWS V14.00,2013-03-04 13:40:00,
2013-03-04 08:45:00,34.1,27.3,29.48,WNW,282,3.0,11.0,76,0.00,,,0.00,VWS V14.00,2013-03-04 13:45:00,
2013-03-04 08:50:00,34.1,27.3,29.48,NNW,338,2.0,11.0,76,0.00,,,0.00,VWS V14.00,2013-03-04 13:50:00,
2013-03-04 08:55:00,33.9,27.1,29.48,West,267,4.0,11.0,76,0.00,,,0.00,VWS V14.00,2013-03-04 13:55:00,
2013-03-04 09:00:00,33.7,27.6,29.48,WNW,286,4.0,8.0,78,0.00,,,0.00,VWS V14.00,2013-03-04 14:00:00,
2013-03-04 09:05:00,33.4,27.6,29.49,SSW,207,2.0,8.0,79,0.00,,,0.00,VWS V14.00,2013-03-04 14:05:00,
2013-03-04 09:10:00,33.1,27.6,29.48,WNW,292,1.0,8.0,80,0.00,,,0.00,VWS V14.00,2013-03-04 14:10:00,
2013-03-04 09:15:00,33.0,27.5,29.49,WSW,252,2.0,8.0,80,0.00,,,0.00,VWS V14.00,2013-03-04 14:15:00,
2013-03-04 09:20:00,33.0,27.5,29.49,West,266,7.0,8.0,80,0.00,,,0.00,VWS V14.00,2013-03-04 14:20:00,
2013-03-04 09:25:00,33.0,27.8,29.48,SW,230,5.0,11.0,81,0.00,,,0.00,VWS V14.00,2013-03-04 14:25:00,
2013-03-04 09:30:00,32.8,27.9,29.48,WSW,250,7.0,8.0,82,0.00,,,0.00,VWS V14.00,2013-03-04 14:30:00,
2013-03-04 09:35:00,32.4,28.4,29.49,WNW,283,7.0,13.0,85,0.00,,,0.00,VWS V14.00,2013-03-04 14:35:00,
2013-03-04 09:40:00,32.0,28.6,29.49,West,260,5.0,13.0,87,0.00,,,0.00,VWS V14.00,2013-03-04 14:40:00,
2013-03-04 09:45:00,32.0,28.9,29.48,WSW,248,3.0,13.0,88,0.00,,,0.00,VWS V14.00,2013-03-04 14:45:00,
2013-03-04 09:50:00,32.0,28.9,29.49,WNW,289,4.0,13.0,88,0.00,,,0.00,VWS V14.00,2013-03-04 14:50:00,
2013-03-04 09:55:00,32.0,28.9,29.49,WSW,244,5.0,13.0,88,0.00,,,0.00,VWS V14.00,2013-03-04 14:55:00,
2013-03-04 10:00:00,32.1,29.0,29.49,South,186,2.0,8.0,88,0.00,,,0.00,VWS V14.00,2013-03-04 15:00:00,
2013-03-04 10:05:00,32.3,28.9,29.48,SW,220,9.0,9.0,87,0.00,,,0.00,VWS V14.00,2013-03-04 15:05:00,
2013-03-04 10:10:00,32.5,28.5,29.48,WNW,292,1.0,9.0,85,0.00,,,0.00,VWS V14.00,2013-03-04 15:10:00,
2013-03-04 10:15:00,32.7,28.7,29.48,NW,306,5.0,9.0,85,0.00,,,0.00,VWS V14.00,2013-03-04 15:15:00,
2013-03-04 10:20:00,32.8,28.5,29.48,WSW,250,3.0,9.0,84,0.00,,,0.00,VWS V14.00,2013-03-04 15:20:00,
2013-03-04 10:25:00,32.9,28.6,29.48,North,5,1.0,9.0,84,0.00,,,0.00,VWS V14.00,2013-03-04 15:25:00,
2013-03-04 10:30:00,33.1,28.5,29.48,West,261,6.0,7.0,83,0.00,,,0.00,VWS V14.00,2013-03-04 15:30:00,
2013-03-04 10:35:00,33.3,28.1,29.48,SW,232,4.0,7.0,81,0.00,,,0.00,VWS V14.00,2013-03-04 15:35:00,
2013-03-04 10:40:00,33.7,27.9,29.48,West,271,10.0,10.0,79,0.00,,,0.00,VWS V14.00,2013-03-04 15:40:00,
2013-03-04 10:45:00,34.0,27.6,29.48,West,279,2.0,10.0,77,0.00,,,0.00,VWS V14.00,2013-03-04 15:45:00,
2013-03-04 10:50:00,33.9,27.5,29.48,WNW,295,3.0,12.0,77,0.00,,,0.00,VWS V14.00,2013-03-04 15:50:00,
2013-03-04 10:55:00,33.5,28.0,29.48,WNW,288,6.0,14.0,80,0.00,,,0.00,VWS V14.00,2013-03-04 15:55:00,
2013-03-04 11:00:00,33.0,28.1,29.48,West,263,8.0,12.0,82,0.00,,,0.00,VWS V14.00,2013-03-04 16:00:00,
2013-03-04 11:05:00,32.9,28.6,29.47,West,278,1.0,12.0,84,0.00,,,0.00,VWS V14.00,2013-03-04 16:05:00,
2013-03-04 11:10:00,33.0,29.0,29.47,WNW,294,3.0,12.0,85,0.00,,,0.00,VWS V14.00,2013-03-04 16:10:00,
2013-03-04 11:15:00,32.9,28.9,29.48,SSW,212,3.0,13.0,85,0.00,,,0.00,VWS V14.00,2013-03-04 16:15:00,
2013-03-04 11:20:00,32.5,28.5,29.47,WSW,254,10.0,13.0,85,0.00,,,0.00,VWS V14.00,2013-03-04 16:20:00,
2013-03-04 11:25:00,32.4,28.7,29.47,WSW,256,5.0,13.0,86,0.00,,,0.00,VWS V14.00,2013-03-04 16:25:00,
2013-03-04 11:30:00,32.3,28.6,29.47,WSW,248,9.0,12.0,86,0.00,,,0.00,VWS V14.00,2013-03-04 16:30:00,
2013-03-04 11:35:00,32.3,28.9,29.47,West,263,9.0,12.0,87,0.00,,,0.00,VWS V14.00,2013-03-04 16:35:00,
2013-03-04 11:40:00,32.4,29.0,29.47,WSW,239,5.0,12.0,87,0.00,,,0.00,VWS V14.00,2013-03-04 16:40:00,
2013-03-04 11:45:00,32.8,29.1,29.47,ENE,69,0.0,12.0,86,0.00,,,0.00,VWS V14.00,2013-03-04 16:45:00,
2013-03-04 11:50:00,33.0,29.0,29.46,NNW,344,4.0,13.0,85,0.00,,,0.00,VWS V14.00,2013-03-04 16:50:00,
2013-03-04 11:55:00,33.2,28.9,29.46,NW,317,5.0,13.0,84,0.00,,,0.00,VWS V14.00,2013-03-04 16:55:00,
2013-03-04 12:00:00,33.5,29.5,29.46,WSW,250,5.0,5.0,85,0.00,,,0.00,VWS V14.00,2013-03-04 17:00:00,
2013-03-04 12:05:00,33.7,29.4,29.46,WSW,250,3.0,10.0,84,0.00,,,0.00,VWS V14.00,2013-03-04 17:05:00,
2013-03-04 12:10:00,33.8,29.5,29.46,WNW,290,2.0,12.0,84,0.00,,,0.00,VWS V14.00,2013-03-04 17:10:00,
2013-03-04 12:15:00,33.9,29.6,29.45,WNW,288,1.0,12.0,84,0.00,,,0.00,VWS V14.00,2013-03-04 17:15:00,
2013-03-04 12:20:00,34.1,29.8,29.45,NNW,339,2.0,12.0,84,0.00,,,0.00,VWS V14.00,2013-03-04 17:20:00,
2013-03-04 12:25:00,33.9,29.6,29.45,WSW,257,7.0,13.0,84,0.00,,,0.00,VWS V14.00,2013-03-04 17:25:00,
2013-03-04 12:30:00,33.8,29.5,29.46,SW,228,5.0,8.0,84,0.00,,,0.00,VWS V14.00,2013-03-04 17:30:00,
2013-03-04 12:35:00,33.9,29.9,29.45,NNW,344,5.0,11.0,85,0.00,,,0.00,VWS V14.00,2013-03-04 17:35:00,
2013-03-04 12:40:00,34.1,30.1,29.45,WSW,244,3.0,11.0,85,0.00,,,0.00,VWS V14.00,2013-03-04 17:40:00,
2013-03-04 12:45:00,34.0,30.3,29.46,WNW,290,3.0,18.0,86,0.01,,,0.01,VWS V14.00,2013-03-04 17:45:00,
2013-03-04 12:50:00,34.0,30.3,29.46,NNW,347,1.0,18.0,86,0.01,,,0.01,VWS V14.00,2013-03-04 17:50:00,
2013-03-04 12:55:00,33.7,30.2,29.46,WSW,248,3.0,18.0,87,0.01,,,0.01,VWS V14.00,2013-03-04 17:55:00,
2013-03-04 13:00:00,33.3,30.4,29.46,West,277,6.0,11.0,89,0.01,,,0.01,VWS V14.00,2013-03-04 18:00:00,
2013-03-04 13:05:00,33.1,30.5,29.46,WSW,256,6.0,11.0,90,0.01,,,0.01,VWS V14.00,2013-03-04 18:05:00,
2013-03-04 13:10:00,32.9,30.3,29.46,WNW,300,2.0,11.0,90,0.01,,,0.01,VWS V14.00,2013-03-04 18:10:00,
2013-03-04 13:15:00,32.6,30.3,29.46,NNE,17,3.0,11.0,91,0.01,,,0.01,VWS V14.00,2013-03-04 18:15:00,
2013-03-04 13:20:00,32.5,30.2,29.46,NNW,340,4.0,11.0,91,0.01,,,0.01,VWS V14.00,2013-03-04 18:20:00,
2013-03-04 13:25:00,32.3,30.0,29.46,WNW,286,2.0,11.0,91,0.01,,,0.01,VWS V14.00,2013-03-04 18:25:00,
2013-03-04 13:29:00,32.1,30.0,29.46,WSW,244,6.0,8.0,92,0.01,,,0.01,VWS V14.00,2013-03-04 18:29:00,
2013-03-04 13:34:00,32.1,30.0,29.46,SW,220,0.0,12.0,92,0.01,,,0.01,VWS V14.00,2013-03-04 18:34:00,
2013-03-04 13:39:00,32.0,29.9,29.46,SW,223,5.0,12.0,92,0.01,,,0.01,VWS V14.00,2013-03-04 18:39:00,
2013-03-04 13:44:00,32.0,29.9,29.46,NW,320,6.0,12.0,92,0.01,,,0.01,VWS V14.00,2013-03-04 18:44:00,
2013-03-04 13:49:00,32.0,29.9,29.46,West,274,2.0,12.0,92,0.02,,,0.02,VWS V14.00,2013-03-04 18:49:00,
2013-03-04 13:54:00,32.0,29.9,29.46,SW,236,2.0,12.0,92,0.02,,,0.02,VWS V14.00,2013-03-04 18:54:00,
2013-03-04 13:59:00,32.0,29.9,29.46,South,188,2.0,10.0,92,0.01,,,0.02,VWS V14.00,2013-03-04 18:59:00,
2013-03-04 14:04:00,31.9,29.8,29.47,NNW,331,5.0,10.0,92,0.01,,,0.02,VWS V14.00,2013-03-04 19:04:00,
2013-03-04 14:09:00,31.8,29.8,29.47,WSW,254,1.0,15.0,92,0.01,,,0.02,VWS V14.00,2013-03-04 19:09:00,
2013-03-04 14:14:00,31.8,29.8,29.47,WNW,290,4.0,15.0,92,0.01,,,0.02,VWS V14.00,2013-03-04 19:14:00,
2013-03-04 14:19:00,31.9,29.8,29.47,WSW,240,2.0,15.0,92,0.02,,,0.03,VWS V14.00,2013-03-04 19:19:00,
2013-03-04 14:24:00,31.9,29.8,29.47,WNW,292,2.0,15.0,92,0.02,,,0.03,VWS V14.00,2013-03-04 19:24:00,
2013-03-04 14:29:00,31.9,29.8,29.47,SSE,165,4.0,7.0,92,0.02,,,0.03,VWS V14.00,2013-03-04 19:29:00,
2013-03-04 14:34:00,31.9,29.8,29.47,West,262,2.0,7.0,92,0.02,,,0.03,VWS V14.00,2013-03-04 19:34:00,
2013-03-04 14:39:00,31.9,29.8,29.47,WNW,300,1.0,10.0,92,0.02,,,0.03,VWS V14.00,2013-03-04 19:39:00,
2013-03-04 14:44:00,32.0,29.9,29.47,WSW,257,4.0,10.0,92,0.02,,,0.03,VWS V14.00,2013-03-04 19:44:00,
2013-03-04 14:49:00,32.1,30.0,29.47,West,269,3.0,10.0,92,0.02,,,0.03,VWS V14.00,2013-03-04 19:49:00,
2013-03-04 14:54:00,32.2,29.9,29.47,West,261,3.0,10.0,91,0.03,,,0.04,VWS V14.00,2013-03-04 19:54:00,
2013-03-04 14:59:00,32.3,30.0,29.47,West,261,3.0,3.0,91,0.02,,,0.04,VWS V14.00,2013-03-04 19:59:00,
2013-03-04 15:04:00,32.4,30.1,29.47,North,5,5.0,10.0,91,0.02,,,0.04,VWS V14.00,2013-03-04 20:04:00,
2013-03-04 15:09:00,32.6,29.7,29.48,WNW,289,2.0,10.0,89,0.02,,,0.04,VWS V14.00,2013-03-04 20:09:00,
2013-03-04 15:14:00,32.6,29.2,29.48,WSW,244,6.0,10.0,87,0.02,,,0.04,VWS V14.00,2013-03-04 20:14:00,
2013-03-04 15:19:00,32.7,29.0,29.48,SW,234,3.0,10.0,86,0.02,,,0.04,VWS V14.00,2013-03-04 20:19:00,
2013-03-04 15:24:00,32.7,29.0,29.48,NNE,26,2.0,10.0,86,0.02,,,0.04,VWS V14.00,2013-03-04 20:24:00,
2013-03-04 15:29:00,32.7,29.0,29.48,SW,217,5.0,10.0,86,0.02,,,0.05,VWS V14.00,2013-03-04 20:29:00,
2013-03-04 15:34:00,32.5,28.8,29.48,SW,216,4.0,10.0,86,0.02,,,0.05,VWS V14.00,2013-03-04 20:34:00,
2013-03-04 15:39:00,32.5,28.8,29.48,WNW,288,7.0,12.0,86,0.02,,,0.05,VWS V14.00,2013-03-04 20:39:00,
2013-03-04 15:44:00,32.4,28.4,29.48,NW,318,6.0,12.0,85,0.02,,,0.05,VWS V14.00,2013-03-04 20:44:00,
2013-03-04 15:49:00,32.4,28.4,29.48,North,350,1.0,12.0,85,0.02,,,0.05,VWS V14.00,2013-03-04 20:49:00,
2013-03-04 15:54:00,32.4,28.4,29.48,NNE,20,4.0,12.0,85,0.02,,,0.05,VWS V14.00,2013-03-04 20:54:00,
2013-03-04 15:59:00,32.4,28.4,29.48,NW,316,0.0,7.0,85,0.01,,,0.05,VWS V14.00,2013-03-04 20:59:00,
2013-03-04 16:04:00,32.4,28.1,29.48,WSW,248,2.0,9.0,84,0.01,,-RA,0.05,VWS V14.00,2013-03-04 21:04:00,
2013-03-04 16:09:00,32.4,28.1,29.49,WSW,253,4.0,9.0,84,0.01,,-RA,0.05,VWS V14.00,2013-03-04 21:09:00,
2013-03-04 16:14:00,32.3,28.3,29.49,West,261,5.0,10.0,85,0.01,,-RA,0.05,VWS V14.00,2013-03-04 21:14:00,
2013-03-04 16:19:00,32.3,28.0,29.49,NNW,328,1.0,10.0,84,0.01,,,0.05,VWS V14.00,2013-03-04 21:19:00,
2013-03-04 16:24:00,32.3,28.0,29.49,NW,315,1.0,10.0,84,0.01,,,0.05,VWS V14.00,2013-03-04 21:24:00,
2013-03-04 16:29:00,32.3,28.0,29.49,NW,304,8.0,8.0,84,0.00,,,0.05,VWS V14.00,2013-03-04 21:29:00,
2013-03-04 16:34:00,32.3,27.7,29.49,WNW,303,3.0,8.0,83,0.00,,,0.05,VWS V14.00,2013-03-04 21:34:00,
2013-03-04 16:39:00,32.3,27.7,29.49,NW,313,4.0,8.0,83,0.00,,,0.05,VWS V14.00,2013-03-04 21:39:00,
2013-03-04 16:44:00,32.3,27.7,29.49,West,270,4.0,14.0,83,0.00,,,0.05,VWS V14.00,2013-03-04 21:44:00,
2013-03-04 16:49:00,32.3,27.4,29.50,NNE,15,1.0,14.0,82,0.00,,,0.05,VWS V14.00,2013-03-04 21:49:00,
2013-03-04 16:54:00,32.3,27.4,29.50,West,261,3.0,14.0,82,0.00,,,0.05,VWS V14.00,2013-03-04 21:54:00,
2013-03-04 16:59:00,32.4,27.5,29.50,NW,304,2.0,7.0,82,0.00,,,0.05,VWS V14.00,2013-03-04 21:59:00,
2013-03-04 17:04:00,32.4,27.2,29.50,WNW,294,0.0,9.0,81,0.00,,,0.05,VWS V14.00,2013-03-04 22:04:00,
2013-03-04 17:09:00,32.3,27.1,29.51,SW,229,0.0,9.0,81,0.00,,,0.05,VWS V14.00,2013-03-04 22:09:00,
2013-03-04 17:14:00,32.2,26.7,29.51,WNW,283,2.0,9.0,80,0.00,,,0.05,VWS V14.00,2013-03-04 22:14:00,
2013-03-04 17:19:00,32.0,26.5,29.51,WSW,243,1.0,9.0,80,0.00,,,0.05,VWS V14.00,2013-03-04 22:19:00,
2013-03-04 17:24:00,32.0,26.5,29.51,NW,324,3.0,9.0,80,0.00,,,0.05,VWS V14.00,2013-03-04 22:24:00,
2013-03-04 17:29:00,32.0,26.5,29.51,WNW,300,0.0,8.0,80,0.00,,,0.05,VWS V14.00,2013-03-04 22:29:00,
2013-03-04 17:34:00,31.9,26.4,29.51,SSW,202,6.0,8.0,80,0.00,,,0.05,VWS V14.00,2013-03-04 22:34:00,
2013-03-04 17:39:00,31.9,26.4,29.52,NNW,342,3.0,8.0,80,0.00,,,0.05,VWS V14.00,2013-03-04 22:39:00,
2013-03-04 17:44:00,31.9,26.1,29.52,North,355,3.0,9.0,79,0.00,,,0.05,VWS V14.00,2013-03-04 22:44:00,
2013-03-04 17:49:00,31.9,26.1,29.52,West,279,4.0,9.0,79,0.00,,,0.05,VWS V14.00,2013-03-04 22:49:00,
2013-03-04 17:54:00,31.8,26.0,29.52,SW,228,0.0,9.0,79,0.00,,,0.05,VWS V14.00,2013-03-04 22:54:00,
2013-03-04 17:59:00,31.8,26.0,29.52,West,263,6.0,6.0,79,0.00,,,0.05,VWS V14.00,2013-03-04 22:59:00,
2013-03-04 18:04:00,31.7,25.6,29.53,West,268,3.0,7.0,78,0.00,,,0.05,VWS V14.00,2013-03-04 23:04:00,
2013-03-04 18:09:00,31.7,25.9,29.53,WNW,302,0.0,7.0,79,0.00,,,0.05,VWS V14.00,2013-03-04 23:09:00,
2013-03-04 18:14:00,31.6,25.9,29.53,West,270,4.0,8.0,79,0.00,,,0.05,VWS V14.00,2013-03-04 23:14:00,
2013-03-04 18:19:00,31.5,25.8,29.53,NW,306,3.0,8.0,79,0.00,,,0.05,VWS V14.00,2013-03-04 23:19:00,
2013-03-04 18:24:00,31.4,25.6,29.53,West,275,0.0,8.0,79,0.00,,,0.05,VWS V14.00,2013-03-04 23:24:00,
2013-03-04 18:29:00,31.4,25.6,29.54,West,265,3.0,5.0,79,0.00,,,0.05,VWS V14.00,2013-03-04 23:29:00,
2013-03-04 18:34:00,31.3,25.2,29.54,WNW,301,3.0,5.0,78,0.00,,,0.05,VWS V14.00,2013-03-04 23:34:00,
2013-03-04 18:39:00,31.3,25.2,29.54,North,11,0.0,5.0,78,0.00,,,0.05,VWS V14.00,2013-03-04 23:39:00,
2013-03-04 18:44:00,31.2,25.1,29.54,NW,312,0.0,5.0,78,0.00,,,0.05,VWS V14.00,2013-03-04 23:44:00,
2013-03-04 18:49:00,31.2,25.5,29.54,SW,234,5.0,8.0,79,0.00,,,0.05,VWS V14.00,2013-03-04 23:49:00,
2013-03-04 18:54:00,31.2,25.5,29.54,West,273,3.0,8.0,79,0.00,,,0.05,VWS V14.00,2013-03-04 23:54:00,
2013-03-04 18:59:00,31.2,25.5,29.54,North,5,2.0,4.0,79,0.00,,,0.05,VWS V14.00,2013-03-04 23:59:00,
2013-03-04 19:04:00,31.1,25.4,29.55,North,355,0.0,6.0,79,0.00,,,0.05,VWS V14.00,2013-03-05 00:04:00,
2013-03-04 19:09:00,31.0,25.6,29.55,WNW,287,1.0,6.0,80,0.00,,,0.05,VWS V14.00,2013-03-05 00:09:00,
2013-03-04 19:14:00,30.9,25.5,29.55,West,281,3.0,8.0,80,0.00,,,0.05,VWS V14.00,2013-03-05 00:14:00,
2013-03-04 19:19:00,30.8,25.4,29.55,WSW,246,2.0,8.0,80,0.00,,,0.05,VWS V14.00,2013-03-05 00:19:00,
2013-03-04 19:24:00,30.8,25.7,29.55,NW,321,2.0,8.0,81,0.00,,,0.05,VWS V14.00,2013-03-05 00:24:00,
2013-03-04 19:29:00,30.8,26.0,29.55,West,271,7.0,8.0,82,0.00,,,0.05,VWS V14.00,2013-03-05 00:29:00,
2013-03-04 19:34:00,30.8,26.0,29.56,SW,236,6.0,11.0,82,0.00,,,0.05,VWS V14.00,2013-03-05 00:34:00,
2013-03-04 19:39:00,30.9,26.4,29.56,NW,306,7.0,11.0,83,0.00,,,0.05,VWS V14.00,2013-03-05 00:39:00,
2013-03-04 19:44:00,30.9,26.4,29.56,WSW,255,4.0,11.0,83,0.00,,,0.05,VWS V14.00,2013-03-05 00:44:00,
2013-03-04 19:49:00,30.8,26.5,29.56,WSW,248,8.0,11.0,84,0.00,,,0.05,VWS V14.00,2013-03-05 00:49:00,
2013-03-04 19:54:00,30.7,26.7,29.56,North,360,6.0,11.0,85,0.00,,,0.05,VWS V14.00,2013-03-05 00:54:00,
2013-03-04 19:59:00,30.6,26.9,29.57,NE,37,4.0,7.0,86,0.00,,,0.05,VWS V14.00,2013-03-05 00:59:00,
2013-03-04 20:04:00,30.5,27.1,29.57,WNW,296,0.0,8.0,87,0.00,,,0.05,VWS V14.00,2013-03-05 01:04:00,
2013-03-04 20:09:00,30.5,27.4,29.57,WSW,249,1.0,8.0,88,0.00,,,0.05,VWS V14.00,2013-03-05 01:09:00,
2013-03-04 20:14:00,30.4,27.3,29.57,WNW,298,0.0,8.0,88,0.00,,,0.05,VWS V14.00,2013-03-05 01:14:00,
2013-03-04 20:19:00,30.4,27.3,29.58,WNW,286,3.0,9.0,88,0.00,,,0.05,VWS V14.00,2013-03-05 01:19:00,
2013-03-04 20:24:00,30.4,27.3,29.58,NW,323,0.0,12.0,88,0.00,,,0.05,VWS V14.00,2013-03-05 01:24:00,
2013-03-04 20:29:00,30.3,27.5,29.58,NW,321,1.0,7.0,89,0.00,,,0.05,VWS V14.00,2013-03-05 01:29:00,
2013-03-04 20:34:00,30.3,27.5,29.58,NW,304,0.0,9.0,89,0.00,,,0.05,VWS V14.00,2013-03-05 01:34:00,
2013-03-04 20:39:00,30.3,27.5,29.58,WNW,299,2.0,11.0,89,0.00,,,0.05,VWS V14.00,2013-03-05 01:39:00,
2013-03-04 20:44:00,30.3,27.5,29.58,WSW,249,1.0,11.0,89,0.00,,,0.05,VWS V14.00,2013-03-05 01:44:00,
2013-03-04 20:49:00,30.3,27.5,29.58,WSW,237,2.0,11.0,89,0.00,,,0.05,VWS V14.00,2013-03-05 01:49:00,
2013-03-04 20:54:00,30.3,27.5,29.59,WSW,246,7.0,11.0,89,0.00,,,0.05,VWS V14.00,2013-03-05 01:54:00,
2013-03-04 20:59:00,30.3,27.5,29.59,WNW,290,5.0,8.0,89,0.00,,,0.05,VWS V14.00,2013-03-05 01:59:00,
2013-03-04 21:04:00,30.4,27.8,29.59,West,266,15.0,15.0,90,0.00,,,0.05,VWS V14.00,2013-03-05 02:04:00,
2013-03-04 21:09:00,30.3,27.7,29.59,WSW,252,4.0,15.0,90,0.00,,,0.05,VWS V14.00,2013-03-05 02:09:00,
2013-03-04 21:14:00,30.3,27.7,29.59,SW,232,5.0,15.0,90,0.00,,,0.05,VWS V14.00,2013-03-05 02:14:00,
2013-03-04 21:19:00,30.3,28.0,29.59,South,190,4.0,15.0,91,0.00,,,0.05,VWS V14.00,2013-03-05 02:19:00,
2013-03-04 21:24:00,30.3,28.0,29.59,SSW,209,4.0,15.0,91,0.00,,,0.05,VWS V14.00,2013-03-05 02:24:00,
2013-03-04 21:29:00,30.3,28.0,29.59,WSW,255,6.0,8.0,91,0.00,,,0.05,VWS V14.00,2013-03-05 02:29:00,
2013-03-04 21:34:00,30.4,28.1,29.59,WNW,298,0.0,10.0,91,0.00,,,0.05,VWS V14.00,2013-03-05 02:34:00,
2013-03-04 21:39:00,30.4,28.4,29.60,West,268,0.0,10.0,92,0.00,,,0.05,VWS V14.00,2013-03-05 02:39:00,
2013-03-04 21:44:00,30.4,28.4,29.60,West,266,0.0,10.0,92,0.00,,,0.05,VWS V14.00,2013-03-05 02:44:00,
2013-03-04 21:49:00,30.5,28.5,29.60,West,270,3.0,10.0,92,0.00,,,0.05,VWS V14.00,2013-03-05 02:49:00,
2013-03-04 21:54:00,30.5,28.5,29.60,WSW,238,2.0,10.0,92,0.00,,,0.05,VWS V14.00,2013-03-05 02:54:00,
2013-03-04 21:59:00,30.6,28.6,29.60,NW,304,6.0,12.0,92,0.00,,,0.05,VWS V14.00,2013-03-05 02:59:00,
2013-03-04 22:04:00,30.6,28.6,29.60,NW,309,4.0,12.0,92,0.00,,,0.05,VWS V14.00,2013-03-05 03:04:00,
2013-03-04 22:09:00,30.6,28.8,29.60,West,259,2.0,12.0,93,0.00,,,0.05,VWS V14.00,2013-03-05 03:09:00,
2013-03-04 22:14:00,30.6,28.8,29.60,WSW,257,4.0,12.0,93,0.00,,,0.05,VWS V14.00,2013-03-05 03:14:00,
2013-03-04 22:19:00,30.6,28.8,29.61,North,355,5.0,12.0,93,0.00,,,0.05,VWS V14.00,2013-03-05 03:19:00,
2013-03-04 22:24:00,30.6,28.8,29.61,WSW,255,9.0,12.0,93,0.00,,,0.05,VWS V14.00,2013-03-05 03:24:00,
2013-03-04 22:29:00,30.6,28.8,29.61,WNW,296,3.0,4.0,93,0.00,,,0.05,VWS V14.00,2013-03-05 03:29:00,
2013-03-04 22:34:00,30.7,28.9,29.61,NE,34,2.0,13.0,93,0.00,,,0.05,VWS V14.00,2013-03-05 03:34:00,
2013-03-04 22:39:00,30.7,28.9,29.61,WSW,254,3.0,13.0,93,0.00,,,0.05,VWS V14.00,2013-03-05 03:39:00,
2013-03-04 22:44:00,30.7,28.9,29.61,North,360,2.0,13.0,93,0.00,,,0.05,VWS V14.00,2013-03-05 03:44:00,
2013-03-04 22:49:00,30.7,28.9,29.61,SW,232,3.0,13.0,93,0.00,,,0.05,VWS V14.00,2013-03-05 03:49:00,
2013-03-04 22:54:00,30.7,28.9,29.62,WSW,255,4.0,13.0,93,0.00,,,0.05,VWS V14.00,2013-03-05 03:54:00,
2013-03-04 22:59:00,30.7,28.9,29.62,NNE,26,1.0,5.0,93,0.00,,,0.05,VWS V14.00,2013-03-05 03:59:00,
2013-03-04 23:04:00,30.7,28.9,29.62,WNW,290,1.0,10.0,93,0.00,,,0.05,VWS V14.00,2013-03-05 04:04:00,
2013-03-04 23:09:00,30.7,28.9,29.62,West,270,8.0,10.0,93,0.00,,,0.05,VWS V14.00,2013-03-05 04:09:00,
2013-03-04 23:14:00,30.8,29.0,29.62,WNW,282,4.0,10.0,93,0.00,,,0.05,VWS V14.00,2013-03-05 04:14:00,
2013-03-04 23:19:00,30.7,28.9,29.62,WSW,241,4.0,10.0,93,0.00,,,0.05,VWS V14.00,2013-03-05 04:19:00,
2013-03-04 23:24:00,30.8,29.0,29.63,WNW,283,1.0,11.0,93,0.00,,,0.05,VWS V14.00,2013-03-05 04:24:00,
2013-03-04 23:29:00,30.8,29.0,29.63,WNW,286,6.0,6.0,93,0.00,,,0.05,VWS V14.00,2013-03-05 04:29:00,
2013-03-04 23:34:00,30.8,29.0,29.63,West,271,2.0,8.0,93,0.00,,,0.05,VWS V14.00,2013-03-05 04:34:00,
2013-03-04 23:39:00,30.9,29.1,29.63,West,263,3.0,8.0,93,0.00,,,0.05,VWS V14.00,2013-03-05 04:39:00,
2013-03-04 23:44:00,30.9,29.1,29.63,WSW,242,2.0,8.0,93,0.00,,,0.05,VWS V14.00,2013-03-05 04:44:00,
2013-03-04 23:49:00,31.0,29.2,29.64,WNW,287,3.0,8.0,93,0.00,,,0.05,VWS V14.00,2013-03-05 04:49:00,
2013-03-04 23:54:00,31.0,29.2,29.64,NNE,31,0.0,10.0,93,0.00,,,0.05,VWS V14.00,2013-03-05 04:54:00,
2013-03-04 23:59:00,31.0,29.2,29.64,North,355,4.0,5.0,93,0.00,,,0.00,VWS V14.00,2013-03-05 04:59:00,